TimeIST,TemperatureF,Dew PointF,Humidity,Sea Level PressureIn,VisibilityMPH,Wind Direction,Wind SpeedMPH,Gust SpeedMPH,PrecipitationIn,Events,Conditions,WindDirDegrees,DateUTC
12:00 AM,60.8,37.4,42,29.95,1.9,ENE,6.9,-,N/A,,Haze,60,2014-02-11 18:30:00
1:00 AM,59.0,37.4,45,29.95,1.9,East,5.8,-,N/A,,Haze,80,2014-02-11 19:30:00
2:00 AM,53.6,37.4,54,29.95,1.9,Variable,2.3,-,N/A,,Haze,0,2014-02-11 20:30:00
2:30 AM,54,38,44,29.93,1,Calm,Calm,,,,Haze,,2014-02-11 21:00:00
2:30 AM,55.4,39.2,54,29.92,1.9,Calm,Calm,-,N/A,,Haze,0,2014-02-11 21:00:00
3:00 AM,53.6,39.2,58,29.92,1.9,Calm,Calm,-,N/A,,Haze,0,2014-02-11 21:30:00
4:00 AM,53.6,39.2,58,29.92,1.9,Calm,Calm,-,N/A,,Haze,0,2014-02-11 22:30:00
5:00 AM,51.8,39.2,62,29.92,1.9,Calm,Calm,-,N/A,,Haze,0,2014-02-11 23:30:00
5:30 AM,51,40,57,29.93,1,Calm,Calm,,,,Haze,,2014-02-12 00:00:00
6:00 AM,51.8,41.0,67,29.92,1.9,Calm,Calm,-,N/A,,Haze,0,2014-02-12 00:30:00
6:30 AM,51.8,39.2,62,29.95,1.9,Calm,Calm,-,N/A,,Haze,0,2014-02-12 01:00:00
7:00 AM,50.0,41.0,71,29.95,1.9,Calm,Calm,-,N/A,,Haze,0,2014-02-12 01:30:00
7:30 AM,51.8,41.0,67,29.95,1.2,Calm,Calm,-,N/A,,Haze,0,2014-02-12 02:00:00
8:00 AM,50.0,42.8,76,29.98,1.0,Calm,Calm,-,N/A,,Smoke,0,2014-02-12 02:30:00
8:30 AM,55,43,55,29.96,1,Calm,Calm,,,,Smoke,,2014-02-12 03:00:00
9:00 AM,59.0,41.0,51,29.98,1.2,Calm,Calm,-,N/A,,Smoke,0,2014-02-12 03:30:00
10:00 AM,64.4,39.2,40,30.01,1.6,East,3.5,-,N/A,,Smoke,100,2014-02-12 04:30:00
11:30 AM,70,40,23,29.96,2,SE,4.6,,,,Haze,140,2014-02-12 06:00:00
12:00 PM,68.0,33.8,28,30.01,2.5,South,5.8,-,N/A,,Haze,190,2014-02-12 06:30:00
1:00 PM,69.8,32.0,25,29.98,2.5,Variable,4.6,-,N/A,,Unknown,0,2014-02-12 07:30:00
2:00 PM,71.6,32.0,23,29.92,2.8,West,5.8,-,N/A,,Haze,280,2014-02-12 08:30:00
2:30 PM,71,29,12,29.87,2,SW,5.8,,,,Haze,230,2014-02-12 09:00:00
3:00 PM,71.6,28.4,20,29.92,2.8,Variable,5.8,-,N/A,,Haze,0,2014-02-12 09:30:00
4:00 PM,71.6,32.0,23,29.92,2.8,Variable,5.8,-,N/A,,Haze,0,2014-02-12 10:30:00
5:00 PM,71.6,32.0,23,29.92,2.8,Variable,4.6,-,N/A,,Haze,0,2014-02-12 11:30:00
5:30 PM,69,39,22,29.88,2,NW,5.8,,,,Haze,320,2014-02-12 12:00:00
6:00 PM,68.0,32.0,26,29.92,2.5,NNW,3.5,-,N/A,,Haze,330,2014-02-12 12:30:00
7:00 PM,66.2,33.8,30,29.92,2.2,Variable,2.3,-,N/A,,Haze,0,2014-02-12 13:30:00
8:30 PM,62,36,27,29.90,1,NE,2.3,,,,Smoke,50,2014-02-12 15:00:00
9:00 PM,59.0,35.6,42,29.95,1.2,Variable,2.3,-,N/A,,Smoke,0,2014-02-12 15:30:00
10:00 PM,57.2,35.6,44,29.95,1.2,Variable,1.2,-,N/A,,Smoke,0,2014-02-12 16:30:00
11:00 PM,59.0,35.6,42,29.95,1.2,ENE,6.9,-,N/A,,Smoke,70,2014-02-12 17:30:00
11:30 PM,58,39,37,29.92,1,ENE,6.9,,,,Smoke,70,2014-02-12 18:00:00